{"data":{"norad_id":62559,"intl_designator":"2025-006F","name":"STARLINK-11517 [DTC]","alt_names":[],"object_type":"PAYLOAD","status":"ACTIVE","operator":null,"country":"US","launch_date":"2025-01-10","launch_site_code":"AFETR","launch_vehicle":null,"mission":null,"orbit_class":"UNKNOWN","rcs_meters":null,"size_class":null,"mass_kg":null,"dimensions":null,"purposes":["comms"],"wikipedia_slug":null,"has_3d_model":false,"image_url":null,"decayed_at":null,"tle_current":{"epoch":"2026-05-25T01:36:43.900992Z","epoch_age_seconds":65413,"freshness":"FRESH","line1":"1 62559U 25006F   26145.06717478  .00215830  00000+0  16298-2 0  9994","line2":"2 62559  43.0028  39.6008 0002830 237.5799 122.4795 15.71018535 78615","mean_motion":15.71018535,"eccentricity":0.000283,"inclination_deg":43.0028,"raan_deg":39.6008,"arg_perigee_deg":237.5799,"mean_anomaly_deg":122.4795,"bstar":0.0016298,"rev_number":7861,"period_min":91.660280761742,"perigee_km":354.07906697507,"apogee_km":357.89057992715,"semimajor_km":6734.1218234511,"source":"CELESTRAK","updated_at":"2026-05-25T13:38:19.707551Z"}}}